| time (UTC) | temp F | wind direction | speed MPH | gust MPH | rain 1hr in | rain 24hr in | rain mn in | humidity % | barometer mb |
| 20260906234513 | 57 | 259 | 3.0 | 9.0 | 0.00 | 0.03 | 0.03 | 58 | 1011.0 |
| 20260906233016 | 58 | 35 | 0.0 | 0.0 | 0.00 | 0.03 | 0.03 | 61 | 1011.1 |
| 20260906231512 | 58 | 318 | 0.0 | 0.0 | 0.00 | 0.03 | 0.03 | 61 | 1010.9 |
| 20260906230019 | 59 | 313 | 0.0 | 1.0 | 0.00 | 0.03 | 0.03 | 59 | 1010.8 |
| 20260906224512 | 59 | 331 | 0.0 | 7.0 | 0.00 | 0.03 | 0.03 | 57 | 1010.8 |
| 20260906223011 | 60 | 262 | 0.0 | 10.0 | 0.00 | 0.03 | 0.03 | 55 | 1010.8 |
| 20260906221511 | 61 | 284 | 0.0 | 10.0 | 0.00 | 0.03 | 0.03 | 53 | 1010.7 |
| 20260906220010 | 63 | 304 | 6.0 | 12.0 | 0.00 | 0.03 | 0.03 | 52 | 1010.6 |
| 20260906214515 | 63 | 319 | 4.0 | 9.0 | 0.00 | 0.03 | 0.03 | 52 | 1010.4 |
| 20260906213016 | 63 | 225 | 5.0 | 14.0 | 0.00 | 0.03 | 0.03 | 50 | 1010.2 |
| 20260906211515 | 64 | 302 | 4.0 | 12.0 | 0.00 | 0.03 | 0.03 | 52 | 1010.2 |
| 20260906210010 | 64 | 314 | 4.0 | 12.0 | 0.00 | 0.03 | 0.03 | 52 | 1010.1 |
| 20260906204516 | 64 | 274 | 3.0 | 15.0 | 0.00 | 0.03 | 0.03 | 53 | 1010.2 |
| 20260906203007 | 63 | 348 | 4.0 | 9.0 | 0.00 | 0.03 | 0.03 | 55 | 1010.2 |
| 20260906201506 | 63 | 266 | 4.0 | 10.0 | 0.00 | 0.03 | 0.03 | 55 | 1010.0 |
| 20260906200006 | 64 | 325 | 2.0 | 11.0 | 0.00 | 0.03 | 0.03 | 56 | 1010.1 |
| 20260906194508 | 64 | 304 | 5.0 | 12.0 | 0.00 | 0.03 | 0.03 | 55 | 1010.0 |
| 20260906193005 | 64 | 308 | 5.0 | 11.0 | 0.00 | 0.03 | 0.03 | 53 | 1010.0 |
| 20260906191508 | 65 | 277 | 3.0 | 9.0 | 0.00 | 0.03 | 0.03 | 55 | 1010.0 |
| 20260906190002 | 64 | 254 | 5.0 | 13.0 | 0.00 | 0.03 | 0.03 | 54 | 1010.1 |
| 20260906184600 | 63 | 336 | 5.0 | 12.0 | 0.00 | 0.03 | 0.03 | 56 | 1010.4 |
| 20260906183110 | 65 | 355 | 2.0 | 13.0 | 0.00 | 0.03 | 0.03 | 57 | 1010.4 |
| 20260906181633 | 65 | 341 | 4.0 | 11.0 | 0.00 | 0.03 | 0.03 | 53 | 1010.5 |
| 20260906180059 | 64 | 342 | 3.0 | 10.0 | 0.01 | 0.03 | 0.03 | 51 | 1010.5 |
| 20260906174553 | 63 | 245 | 5.0 | 16.0 | 0.01 | 0.03 | 0.03 | 54 | 1010.6 |
| 20260906173048 | 61 | 342 | 3.0 | 8.0 | 0.01 | 0.03 | 0.03 | 55 | 1010.7 |
| 20260906171602 | 61 | 273 | 6.0 | 15.0 | 0.01 | 0.03 | 0.03 | 59 | 1010.7 |
| 20260906170050 | 59 | 212 | 2.0 | 11.0 | 0.00 | 0.02 | 0.02 | 72 | 1010.9 |
| 20260906164545 | 59 | 277 | 2.0 | 8.0 | 0.00 | 0.02 | 0.02 | 74 | 1011.0 |
| 20260906163040 | 58 | 282 | 3.0 | 10.0 | 0.00 | 0.02 | 0.02 | 76 | 1011.2 |
| 20260906161540 | 58 | 321 | 3.0 | 11.0 | 0.00 | 0.02 | 0.02 | 76 | 1011.3 |
| 20260906160039 | 58 | 296 | 3.0 | 13.0 | 0.00 | 0.02 | 0.02 | 73 | 1011.2 |
| 20260906154543 | 61 | 307 | 5.0 | 11.0 | 0.00 | 0.02 | 0.02 | 67 | 1011.4 |
| 20260906153036 | 61 | 315 | 7.0 | 12.0 | 0.00 | 0.02 | 0.02 | 68 | 1011.5 |
| 20260906151533 | 61 | 346 | 1.0 | 12.0 | 0.00 | 0.02 | 0.02 | 69 | 1011.8 |
| 20260906150029 | 60 | 321 | 3.0 | 9.0 | 0.00 | 0.02 | 0.02 | 74 | 1012.0 |
| 20260906144526 | 59 | 304 | 3.0 | 10.0 | 0.00 | 0.02 | 0.02 | 76 | 1012.0 |
| 20260906143022 | 57 | 292 | 3.0 | 7.0 | 0.00 | 0.02 | 0.02 | 78 | 1012.2 |
| 20260906141529 | 57 | 272 | 1.0 | 8.0 | 0.00 | 0.02 | 0.02 | 78 | 1012.2 |
| 20260906140017 | 56 | 338 | 0.0 | 8.0 | 0.00 | 0.02 | 0.02 | 80 | 1012.3 |
| 20260906134519 | 55 | 360 | 1.0 | 6.0 | 0.00 | 0.02 | 0.02 | 81 | 1012.5 |
| 20260906133013 | 55 | 295 | 0.0 | 8.0 | 0.00 | 0.02 | 0.02 | 82 | 1012.4 |
| 20260906131512 | 54 | 307 | 0.0 | 6.0 | 0.00 | 0.02 | 0.02 | 83 | 1012.5 |
| 20260906130007 | 53 | 360 | 3.0 | 9.0 | 0.00 | 0.02 | 0.02 | 84 | 1012.5 |
| 20260906124505 | 53 | 322 | 0.0 | 0.0 | 0.00 | 0.02 | 0.02 | 85 | 1012.5 |
| 20260906123002 | 52 | 252 | 0.0 | 0.0 | 0.01 | 0.02 | 0.02 | 85 | 1012.6 |
| 20260906121501 | 52 | 286 | 0.0 | 0.0 | 0.01 | 0.02 | 0.02 | 84 | 1012.5 |
| 20260906114601 | 51 | 280 | 0.0 | 0.0 | 0.02 | 0.02 | 0.02 | 85 | 1012.9 |
| 20260906113057 | 50 | 323 | 0.0 | 0.0 | 0.01 | 0.01 | 0.01 | 85 | 1013.1 |
| 20260906111558 | 50 | 323 | 0.0 | 0.0 | 0.01 | 0.01 | 0.01 | 85 | 1013.1 |
| 20260906110055 | 49 | 323 | 0.0 | 0.0 | 0.00 | 0.00 | 0.00 | 85 | 1012.8 |
| 20260906104601 | 49 | 323 | 0.0 | 0.0 | 0.00 | 0.00 | 0.00 | 85 | 1012.8 |
| 20260906103052 | 49 | 326 | 0.0 | 0.0 | 0.00 | 0.00 | 0.00 | 85 | 1012.9 |
| 20260906101552 | 48 | 261 | 0.0 | 0.0 | 0.00 | 0.00 | 0.00 | 85 | 1012.7 |
| 20260906100051 | 48 | 261 | 0.0 | 0.0 | 0.00 | 0.00 | 0.00 | 85 | 1012.6 |
| 20260906094605 | 48 | 276 | 0.0 | 0.0 | 0.00 | 0.00 | 0.00 | 85 | 1012.8 |
| 20260906093117 | 48 | 284 | 0.0 | 0.0 | 0.00 | 0.00 | 0.00 | 84 | 1012.7 |
| 20260906091548 | 48 | 279 | 0.0 | 0.0 | 0.00 | 0.00 | 0.00 | 84 | 1012.7 |
| 20260906090048 | 48 | 360 | 0.0 | 0.0 | 0.00 | 0.00 | 0.00 | 84 | 1012.7 |
| 20260906084547 | 48 | 360 | 0.0 | 0.0 | 0.00 | 0.00 | 0.00 | 84 | 1012.7 |
| 20260906083049 | 48 | 277 | 0.0 | 0.0 | 0.00 | 0.00 | 0.00 | 84 | 1012.7 |
| 20260906081546 | 48 | 279 | 0.0 | 0.0 | 0.00 | 0.00 | 0.00 | 84 | 1012.8 |
| 20260906080045 | 48 | 279 | 0.0 | 0.0 | 0.00 | 0.00 | 0.00 | 84 | 1012.8 |
| 20260906074543 | 48 | 279 | 0.0 | 0.0 | 0.00 | 0.00 | 0.00 | 84 | 1012.9 |
| 20260906073042 | 49 | 279 | 0.0 | 0.0 | 0.00 | 0.00 | 0.00 | 83 | 1012.9 |
| 20260906071540 | 49 | 279 | 0.0 | 0.0 | 0.00 | 0.00 | 0.00 | 83 | 1012.9 |
| 20260906070039 | 49 | 279 | 0.0 | 0.0 | 0.00 | 0.00 | 0.00 | 83 | 1012.8 |
| 20260906064538 | 49 | 276 | 0.0 | 0.0 | 0.00 | 0.00 | 0.00 | 83 | 1012.7 |
| 20260906063039 | 50 | 278 | 0.0 | 0.0 | 0.00 | 0.00 | 0.00 | 83 | 1012.7 |
| 20260906061538 | 50 | 278 | 0.0 | 0.0 | 0.00 | 0.00 | 0.00 | 84 | 1012.7 |
| 20260906060035 | 50 | 277 | 0.0 | 0.0 | 0.00 | 0.02 | 0.00 | 84 | 1012.8 |
| 20260906054539 | 50 | 248 | 0.0 | 0.0 | 0.00 | 0.02 | 0.00 | 84 | 1012.8 |
| 20260906053035 | 50 | 325 | 0.0 | 0.0 | 0.00 | 0.02 | 0.00 | 84 | 1012.8 |
| 20260906051546 | 50 | 296 | 0.0 | 0.0 | 0.00 | 0.02 | 0.00 | 84 | 1012.6 |
| 20260906050031 | 50 | 301 | 0.0 | 0.0 | 0.00 | 0.07 | 0.00 | 83 | 1012.6 |
| 20260906044529 | 50 | 290 | 0.0 | 0.0 | 0.00 | 0.07 | 0.00 | 83 | 1012.7 |
| 20260906043028 | 50 | 309 | 0.0 | 0.0 | 0.00 | 0.07 | 0.00 | 83 | 1012.7 |
| 20260906041527 | 50 | 321 | 0.0 | 0.0 | 0.00 | 0.07 | 0.00 | 83 | 1012.8 |
| 20260906040030 | 51 | 254 | 0.0 | 0.0 | 0.00 | 0.20 | 0.07 | 83 | 1012.7 |
| 20260906034523 | 51 | 343 | 0.0 | 0.0 | 0.00 | 0.20 | 0.07 | 82 | 1012.7 |
| 20260906033035 | 51 | 325 | 0.0 | 0.0 | 0.00 | 0.20 | 0.07 | 82 | 1012.8 |
| 20260906031520 | 52 | 323 | 0.0 | 0.0 | 0.00 | 0.20 | 0.07 | 82 | 1012.8 |
| 20260906030019 | 52 | 325 | 0.0 | 0.0 | 0.00 | 0.20 | 0.07 | 82 | 1013.0 |
| 20260906024533 | 52 | 5 | 0.0 | 0.0 | 0.00 | 0.20 | 0.07 | 81 | 1012.9 |
| 20260906023019 | 53 | 311 | 0.0 | 0.0 | 0.00 | 0.20 | 0.07 | 81 | 1013.0 |
| 20260906021514 | 53 | 303 | 0.0 | 0.0 | 0.00 | 0.20 | 0.07 | 80 | 1013.1 |
| 20260906020012 | 54 | 334 | 0.0 | 0.0 | 0.00 | 0.20 | 0.07 | 79 | 1013.2 |
| 20260906014515 | 54 | 340 | 0.0 | 0.0 | 0.00 | 0.20 | 0.07 | 79 | 1013.2 |
| 20260906013029 | 55 | 319 | 0.0 | 0.0 | 0.00 | 0.20 | 0.07 | 78 | 1013.2 |
| 20260906011507 | 55 | 40 | 0.0 | 0.0 | 0.00 | 0.20 | 0.07 | 78 | 1013.2 |
| 20260906010007 | 56 | 344 | 0.0 | 6.0 | 0.00 | 0.20 | 0.07 | 77 | 1013.2 |
| 20260906004506 | 56 | 23 | 0.0 | 0.0 | 0.00 | 0.20 | 0.07 | 77 | 1013.1 |
| 20260906003004 | 56 | 36 | 0.0 | 5.0 | 0.00 | 0.20 | 0.07 | 77 | 1012.9 |
| 20260906001503 | 56 | 50 | 0.0 | 3.0 | 0.00 | 0.20 | 0.07 | 77 | 1013.0 |
| 20260906000002 | 57 | 5 | 0.0 | 1.0 | 0.00 | 0.20 | 0.07 | 76 | 1012.9 |